STARLINK-36694

Last updated on Thu Mar 05 2026 00:02:08 GMT+0000 (Coordinated Universal Time)

1 67653U 26022F 26063.51024093 .00763583 00000+0 43749-2 0 9990 2 67653 97.2862 97.2312 0006225 291.6563 68.4039 15.76734752 4735
UTC large
Height (km)
Speed (km/s)
/
Latitude / Longitude
Inclination (degrees)
Orbital Period (minutes)
Azimuth
Elevation
Range (km)
Doppler Factor

Next 0 passes for location: London (51.5072 / 0.1276)

Sorry there are no passes over London.